Tracking 18980 objects as of 23-Feb-2018
HD Live streaming from Space Station
objects crossing your sky now

FENGYUN 1C DEB

Track FENGYUN 1C DEB now!
10-day predictions


NORAD ID: 30999
Int'l Code: 1999-025BCR
Perigee: 650.6 km
Apogee: 847.6 km
Inclination: 99.0 °
Period: 99.7 minutes
Semi major axis: 7120 km
RCS: 0.0123 m2 (small)
Launch date: May 10, 1999
Source: People's Republic of China (PRC)
Launch site: Taiyaun Space Center, China (TSC)

Note: This is SATELLITE DEBRIS
aabbcc
Your satellite tracking list
Your tracking list is empty




NASA's NSSDC Master Catalog

Two Line Element Set (TLE):
1 30999U 99025BCR 18053.27342973  .00000208  00000-0  67434-4 0  9997
2 30999  99.0275 342.5371 0138379 207.1896 152.2001 14.45014072575964
Source of the keplerian elements: AFSPC